Find Aether-8

NORAD ID: 67379 Int'l Des: 2026-004 Owner: KEPLER Country: CA Constellation: kepler-communications-gen2 operational
LEOCIRCULARRETROGRADESSO

当前视图

正在加载3D地球...

关于 Aether-8

正在加载描述...

即将过境

Passes for default location (London). Set your location on the main map for personalized predictions.

高度历史

Loading altitude history...

两行轨道根数

1 67379U 26004S 26150.97314720 .00000898 00000-0 10805-3 0 9993
2 67379 97.8009 149.8192 0001281 180.4437 179.6777 14.86294060 20725
Epoch: May 30, 2026 • Age: 9 hours

当前状态

高度 612.0 km
速度 7.56 km/s
星下点 26.51°N, 36.59°W
发射日期 Jan 11, 2026
运行时间 0.3 years
类型 other

技术详情

分类 Payload
质量 300.00 kg
干质量 300.00 kg
总质量 300.00 kg
长度 1.00 m
直径 1.50 m
跨度 6.00 m
形状 Box+2 pan
制造商 KEPLER
平台类型 Kepler Gen2B
阶段状态 In Orbit
所有者/国家 KEPLER/CA

Most Searched